| time (UTC) | temp C | wind direction | speed KPH | gust KPH | rain 1hr cm | rain 24hr cm | rain mn cm | humidity % | barometer mb |
| 20260506155444 | 12 | 46 | 9.7 | 20.9 | 0.00 | 0.00 | 0.00 | 74 | 1047.4 |
| 20260506153611 | 12 | 27 | 6.4 | 20.9 | 0.00 | 0.00 | 0.00 | 75 | 1046.8 |
| 20260506153108 | 12 | 53 | 14.5 | 19.3 | 0.00 | 0.00 | 0.00 | 75 | 1046.9 |
| 20260506152605 | 12 | 29 | 11.3 | 24.1 | 0.00 | 0.00 | 0.00 | 75 | 1046.6 |
| 20260506152103 | 12 | 27 | 11.3 | 22.5 | 0.00 | 0.00 | 0.00 | 75 | 1046.4 |
| 20260506151601 | 12 | 43 | 9.7 | 24.1 | 0.00 | 0.00 | 0.00 | 75 | 1046.3 |
| 20260506151058 | 12 | 58 | 14.5 | 27.4 | 0.00 | 0.00 | 0.00 | 76 | 1046.7 |
| 20260506150554 | 12 | 36 | 8.0 | 17.7 | 0.00 | 0.00 | 0.00 | 77 | 1046.6 |
| 20260506150051 | 11 | 40 | 12.9 | 22.5 | 0.00 | 0.00 | 0.00 | 78 | 1046.4 |
| 20260506145548 | 11 | 40 | 12.9 | 16.1 | 0.00 | 0.00 | 0.00 | 79 | 1046.9 |
| 20260506145045 | 11 | 39 | 6.4 | 14.5 | 0.00 | 0.00 | 0.00 | 80 | 1046.7 |
| 20260506144542 | 11 | 40 | 8.0 | 17.7 | 0.00 | 0.00 | 0.00 | 79 | 1047.0 |
| 20260506144039 | 11 | 45 | 11.3 | 20.9 | 0.00 | 0.00 | 0.00 | 78 | 1047.1 |
| 20260506143537 | 11 | 23 | 11.3 | 17.7 | 0.00 | 0.00 | 0.00 | 77 | 1047.2 |
| 20260506143035 | 11 | 31 | 9.7 | 17.7 | 0.00 | 0.00 | 0.00 | 77 | 1046.8 |
| 20260506142532 | 11 | 49 | 11.3 | 16.1 | 0.00 | 0.00 | 0.00 | 77 | 1046.7 |
| 20260506142031 | 11 | 45 | 14.5 | 20.9 | 0.00 | 0.00 | 0.00 | 76 | 1046.0 |
| 20260506141528 | 11 | 54 | 20.9 | 20.9 | 0.00 | 0.00 | 0.00 | 76 | 1045.9 |
| 20260506141026 | 11 | 26 | 8.0 | 12.9 | 0.00 | 0.00 | 0.00 | 76 | 1045.9 |
| 20260506140523 | 11 | 27 | 6.4 | 16.1 | 0.00 | 0.00 | 0.00 | 76 | 1045.6 |
| 20260506140021 | 11 | 27 | 8.0 | 19.3 | 0.00 | 0.00 | 0.00 | 76 | 1045.8 |
| 20260506135517 | 11 | 30 | 8.0 | 17.7 | 0.00 | 0.00 | 0.00 | 76 | 1045.6 |
| 20260506135013 | 11 | 7 | 11.3 | 17.7 | 0.00 | 0.00 | 0.00 | 78 | 1045.5 |
| 20260506134510 | 11 | 36 | 14.5 | 17.7 | 0.00 | 0.00 | 0.00 | 77 | 1045.7 |
| 20260506134006 | 11 | 61 | 20.9 | 25.7 | 0.00 | 0.00 | 0.00 | 76 | 1045.7 |
| 20260506133504 | 11 | 18 | 11.3 | 19.3 | 0.00 | 0.00 | 0.00 | 77 | 1045.6 |
| 20260506133000 | 11 | 51 | 14.5 | 19.3 | 0.00 | 0.00 | 0.00 | 78 | 1045.3 |
| 20260506132457 | 11 | 48 | 14.5 | 20.9 | 0.00 | 0.00 | 0.00 | 78 | 1045.4 |
| 20260506131955 | 11 | 20 | 11.3 | 24.1 | 0.00 | 0.00 | 0.00 | 78 | 1045.3 |
| 20260506131451 | 11 | 27 | 8.0 | 20.9 | 0.00 | 0.00 | 0.00 | 79 | 1045.2 |
| 20260506130948 | 11 | 43 | 17.7 | 20.9 | 0.00 | 0.00 | 0.00 | 79 | 1045.1 |
| 20260506130444 | 11 | 23 | 14.5 | 27.4 | 0.00 | 0.00 | 0.00 | 78 | 1045.2 |
| 20260506125942 | 11 | 21 | 8.0 | 25.7 | 0.00 | 0.00 | 0.00 | 79 | 1045.1 |
| 20260506125441 | 11 | 39 | 14.5 | 19.3 | 0.00 | 0.00 | 0.00 | 79 | 1045.2 |
| 20260506124938 | 11 | 10 | 8.0 | 19.3 | 0.00 | 0.00 | 0.00 | 80 | 1045.1 |
| 20260506124435 | 11 | 23 | 9.7 | 17.7 | 0.00 | 0.00 | 0.00 | 80 | 1044.9 |
| 20260506123934 | 11 | 19 | 8.0 | 17.7 | 0.00 | 0.00 | 0.00 | 80 | 1045.2 |
| 20260506123431 | 11 | 35 | 12.9 | 19.3 | 0.00 | 0.00 | 0.00 | 80 | 1045.1 |
| 20260506122928 | 10 | 11 | 6.4 | 20.9 | 0.00 | 0.00 | 0.00 | 80 | 1044.9 |
| 20260506122425 | 10 | 34 | 9.7 | 16.1 | 0.00 | 0.00 | 0.00 | 80 | 1044.7 |
| 20260506121924 | 10 | 6 | 12.9 | 17.7 | 0.00 | 0.00 | 0.00 | 81 | 1045.1 |
| 20260506121420 | 10 | 255 | 3.2 | 11.3 | 0.00 | 0.00 | 0.00 | 82 | 1044.9 |
| 20260506120917 | 10 | 11 | 14.5 | 19.3 | 0.00 | 0.00 | 0.00 | 82 | 1045.0 |
| 20260506120415 | 10 | 21 | 9.7 | 17.7 | 0.00 | 0.00 | 0.00 | 82 | 1044.7 |
| 20260506115912 | 10 | 7 | 9.7 | 19.3 | 0.00 | 0.00 | 0.00 | 83 | 1044.6 |
| 20260506115410 | 10 | 15 | 6.4 | 20.9 | 0.00 | 0.00 | 0.00 | 83 | 1044.2 |
| 20260506114908 | 10 | 358 | 8.0 | 19.3 | 0.00 | 0.00 | 0.00 | 83 | 1044.5 |
| 20260506114405 | 10 | 6 | 8.0 | 24.1 | 0.00 | 0.00 | 0.00 | 84 | 1044.5 |
| 20260506113904 | 10 | 9 | 6.4 | 19.3 | 0.00 | 0.00 | 0.00 | 85 | 1044.5 |
| 20260506113401 | 10 | 5 | 4.8 | 22.5 | 0.00 | 0.00 | 0.00 | 86 | 1044.3 |
| 20260506112857 | 10 | 3 | 9.7 | 14.5 | 0.00 | 0.00 | 0.00 | 87 | 1044.3 |
| 20260506112355 | 10 | 20 | 8.0 | 16.1 | 0.00 | 0.00 | 0.00 | 88 | 1044.0 |
| 20260506111852 | 10 | 29 | 9.7 | 16.1 | 0.00 | 0.00 | 0.00 | 88 | 1044.1 |
| 20260506111350 | 10 | 26 | 17.7 | 24.1 | 0.00 | 0.00 | 0.00 | 88 | 1044.2 |
| 20260506110847 | 10 | 17 | 8.0 | 19.3 | 0.00 | 0.00 | 0.00 | 88 | 1044.4 |
| 20260506110344 | 10 | 10 | 14.5 | 20.9 | 0.00 | 0.00 | 0.00 | 87 | 1044.2 |
| 20260506105841 | 10 | 9 | 4.8 | 16.1 | 0.00 | 0.00 | 0.00 | 86 | 1044.0 |
| 20260506105338 | 10 | 24 | 6.4 | 14.5 | 0.00 | 0.00 | 0.00 | 85 | 1044.0 |
| 20260506104835 | 10 | 28 | 16.1 | 20.9 | 0.00 | 0.00 | 0.00 | 84 | 1044.1 |
| 20260506104332 | 10 | 16 | 9.7 | 16.1 | 0.00 | 0.00 | 0.00 | 82 | 1044.1 |
| 20260506103830 | 10 | 356 | 6.4 | 17.7 | 0.00 | 0.00 | 0.00 | 82 | 1043.8 |
| 20260506103327 | 10 | 7 | 14.5 | 17.7 | 0.00 | 0.00 | 0.00 | 82 | 1044.3 |
| 20260506102825 | 10 | 19 | 8.0 | 16.1 | 0.00 | 0.00 | 0.00 | 82 | 1043.8 |
| 20260506102323 | 10 | 6 | 8.0 | 17.7 | 0.00 | 0.00 | 0.00 | 82 | 1043.5 |
| 20260506101820 | 10 | 17 | 8.0 | 24.1 | 0.00 | 0.00 | 0.00 | 81 | 1043.5 |
| 20260506101315 | 10 | 17 | 9.7 | 14.5 | 0.00 | 0.00 | 0.00 | 82 | 1043.5 |
| 20260506100814 | 10 | 33 | 16.1 | 17.7 | 0.00 | 0.00 | 0.00 | 82 | 1043.6 |
| 20260506100312 | 11 | 350 | 8.0 | 16.1 | 0.00 | 0.00 | 0.00 | 81 | 1043.7 |
| 20260506095810 | 11 | 331 | 8.0 | 20.9 | 0.00 | 0.00 | 0.00 | 81 | 1043.4 |
| 20260506095306 | 11 | 352 | 4.8 | 17.7 | 0.00 | 0.00 | 0.00 | 80 | 1043.2 |
| 20260506094803 | 11 | 6 | 8.0 | 12.9 | 0.00 | 0.00 | 0.00 | 80 | 1043.1 |
| 20260506094302 | 11 | 15 | 4.8 | 17.7 | 0.00 | 0.00 | 0.00 | 80 | 1043.1 |
| 20260506093800 | 11 | 11 | 12.9 | 19.3 | 0.00 | 0.00 | 0.00 | 79 | 1042.9 |
| 20260506093256 | 11 | 10 | 11.3 | 16.1 | 0.00 | 0.00 | 0.00 | 79 | 1042.7 |
| 20260506092755 | 11 | 357 | 8.0 | 17.7 | 0.00 | 0.00 | 0.00 | 78 | 1042.6 |
| 20260506092252 | 11 | 29 | 11.3 | 17.7 | 0.00 | 0.00 | 0.00 | 78 | 1042.8 |
| 20260506091749 | 11 | 11 | 11.3 | 19.3 | 0.00 | 0.00 | 0.00 | 77 | 1042.4 |
| 20260506091247 | 11 | 345 | 11.3 | 16.1 | 0.00 | 0.00 | 0.00 | 78 | 1042.5 |
| 20260506090744 | 11 | 20 | 9.7 | 11.3 | 0.00 | 0.00 | 0.00 | 78 | 1042.5 |
| 20260506090241 | 11 | 13 | 6.4 | 14.5 | 0.00 | 0.00 | 0.00 | 78 | 1042.5 |
| 20260506085738 | 11 | 24 | 8.0 | 20.9 | 0.00 | 0.00 | 0.00 | 77 | 1042.3 |
| 20260506085234 | 11 | 7 | 14.5 | 17.7 | 0.00 | 0.00 | 0.00 | 77 | 1042.3 |
| 20260506084731 | 11 | 7 | 8.0 | 17.7 | 0.00 | 0.00 | 0.00 | 76 | 1042.4 |
| 20260506084227 | 11 | 333 | 4.8 | 9.7 | 0.00 | 0.00 | 0.00 | 78 | 1042.3 |
| 20260506083724 | 11 | 358 | 9.7 | 9.7 | 0.00 | 0.00 | 0.00 | 77 | 1042.4 |
| 20260506083222 | 11 | 342 | 6.4 | 9.7 | 0.00 | 0.00 | 0.00 | 77 | 1042.0 |
| 20260506082719 | 11 | 316 | 4.8 | 11.3 | 0.00 | 0.00 | 0.00 | 77 | 1042.4 |
| 20260506082215 | 11 | 24 | 14.5 | 17.7 | 0.00 | 0.00 | 0.00 | 77 | 1041.9 |
| 20260506081713 | 11 | 11 | 9.7 | 16.1 | 0.00 | 0.00 | 0.00 | 77 | 1042.1 |
| 20260506081210 | 11 | 337 | 11.3 | 12.9 | 0.00 | 0.00 | 0.00 | 77 | 1041.9 |
| 20260506080708 | 11 | 18 | 12.9 | 17.7 | 0.00 | 0.00 | 0.00 | 76 | 1041.8 |
| 20260506080204 | 11 | 18 | 11.3 | 16.1 | 0.00 | 0.00 | 0.00 | 76 | 1041.9 |
| 20260506073148 | 11 | 5 | 14.5 | 17.7 | 0.00 | 0.00 | 0.00 | 76 | 1041.6 |
| 20260506072644 | 11 | 16 | 9.7 | 17.7 | 0.00 | 0.00 | 0.00 | 75 | 1041.7 |
| 20260506072142 | 12 | 30 | 17.7 | 19.3 | 0.00 | 0.00 | 0.00 | 75 | 1041.9 |
| 20260506071640 | 12 | 34 | 4.8 | 12.9 | 0.00 | 0.00 | 0.00 | 75 | 1041.7 |
| 20260506071137 | 12 | 23 | 6.4 | 14.5 | 0.00 | 0.00 | 0.00 | 76 | 1041.3 |
| 20260506070634 | 12 | 27 | 11.3 | 19.3 | 0.00 | 0.00 | 0.00 | 76 | 1041.5 |
| 20260506070131 | 12 | 38 | 9.7 | 14.5 | 0.00 | 0.00 | 0.00 | 75 | 1041.6 |
| 20260506062109 | 12 | 22 | 11.3 | 16.1 | 0.00 | 0.00 | 0.00 | 76 | 1041.8 |
| 20260506061604 | 12 | 14 | 14.5 | 16.1 | 0.00 | 0.00 | 0.00 | 75 | 1041.7 |
| 20260506061102 | 12 | 20 | 6.4 | 17.7 | 0.00 | 0.00 | 0.00 | 75 | 1041.8 |
| 20260506060601 | 12 | 21 | 11.3 | 17.7 | 0.00 | 0.00 | 0.00 | 75 | 1041.8 |
| 20260506051029 | 12 | 15 | 11.3 | 19.3 | 0.00 | 0.00 | 0.00 | 75 | 1042.4 |
| 20260506050527 | 12 | 344 | 4.8 | 16.1 | 0.00 | 0.00 | 0.00 | 76 | 1042.0 |
| 20260506045017 | 12 | 14 | 9.7 | 17.7 | 0.00 | 0.00 | 0.00 | 77 | 1041.9 |
| 20260506044515 | 12 | 332 | 3.2 | 17.7 | 0.00 | 0.00 | 0.00 | 77 | 1042.0 |
| 20260506044012 | 12 | 10 | 9.7 | 14.5 | 0.00 | 0.00 | 0.00 | 78 | 1042.0 |
| 20260506043509 | 12 | 4 | 17.7 | 20.9 | 0.00 | 0.00 | 0.00 | 78 | 1041.5 |
| 20260506043007 | 12 | 2 | 6.4 | 11.3 | 0.00 | 0.00 | 0.00 | 79 | 1041.6 |
| 20260506042506 | 12 | 342 | 9.7 | 14.5 | 0.00 | 0.00 | 0.00 | 79 | 1041.8 |
| 20260506042004 | 12 | 28 | 9.7 | 12.9 | 0.00 | 0.00 | 0.00 | 79 | 1041.8 |
| 20260506041502 | 12 | 8 | 4.8 | 14.5 | 0.00 | 0.00 | 0.00 | 79 | 1042.0 |
| 20260506040959 | 12 | 6 | 4.8 | 12.9 | 0.00 | 0.00 | 0.00 | 79 | 1041.9 |
| 20260506040456 | 13 | 340 | 8.0 | 14.5 | 0.00 | 0.00 | 0.00 | 79 | 1042.0 |
| 20260506035952 | 13 | 359 | 8.0 | 16.1 | 0.00 | 0.00 | 0.00 | 79 | 1042.0 |
| 20260506035449 | 13 | 350 | 6.4 | 12.9 | 0.00 | 0.00 | 0.00 | 80 | 1041.8 |
| 20260506034946 | 13 | 312 | 4.8 | 11.3 | 0.00 | 0.00 | 0.00 | 80 | 1042.0 |
| 20260506034443 | 13 | 350 | 9.7 | 11.3 | 0.00 | 0.00 | 0.00 | 80 | 1041.8 |
| 20260506033940 | 13 | 22 | 11.3 | 19.3 | 0.00 | 0.00 | 0.00 | 79 | 1041.6 |
| 20260506033438 | 13 | 346 | 11.3 | 20.9 | 0.00 | 0.00 | 0.00 | 79 | 1041.8 |
| 20260506032934 | 13 | 24 | 14.5 | 16.1 | 0.00 | 0.00 | 0.00 | 79 | 1041.4 |
| 20260506032432 | 13 | 42 | 6.4 | 11.3 | 0.00 | 0.00 | 0.00 | 79 | 1041.4 |
| 20260506031928 | 13 | 6 | 9.7 | 16.1 | 0.00 | 0.00 | 0.00 | 79 | 1041.7 |
| 20260506031425 | 13 | 22 | 8.0 | 17.7 | 0.00 | 0.00 | 0.00 | 79 | 1041.5 |
| 20260506030923 | 13 | 321 | 4.8 | 14.5 | 0.00 | 0.00 | 0.00 | 78 | 1041.3 |
| 20260506030421 | 13 | 15 | 11.3 | 12.9 | 0.00 | 0.00 | 0.00 | 79 | 1041.3 |
| 20260506025917 | 14 | 344 | 9.7 | 16.1 | 0.00 | 0.00 | 0.00 | 79 | 1041.2 |
| 20260506025414 | 14 | 331 | 3.2 | 12.9 | 0.00 | 0.00 | 0.00 | 80 | 1041.1 |
| 20260506024911 | 14 | 347 | 4.8 | 16.1 | 0.00 | 0.00 | 0.00 | 80 | 1040.6 |
| 20260506024408 | 14 | 356 | 4.8 | 16.1 | 0.00 | 0.00 | 0.00 | 80 | 1040.7 |
| 20260506023904 | 14 | 318 | 4.8 | 12.9 | 0.00 | 0.00 | 0.00 | 81 | 1040.9 |
| 20260506023401 | 14 | 20 | 9.7 | 12.9 | 0.00 | 0.00 | 0.00 | 81 | 1040.6 |
| 20260506022857 | 14 | 341 | 4.8 | 11.3 | 0.00 | 0.00 | 0.00 | 81 | 1040.3 |
| 20260506022355 | 14 | 37 | 14.5 | 14.5 | 0.00 | 0.00 | 0.00 | 82 | 1039.6 |
| 20260506021853 | 14 | 15 | 17.7 | 17.7 | 0.00 | 0.00 | 0.00 | 81 | 1039.6 |
| 20260506021350 | 14 | 26 | 11.3 | 17.7 | 0.00 | 0.00 | 0.00 | 82 | 1039.6 |
| 20260506020846 | 14 | 15 | 11.3 | 24.1 | 0.00 | 0.00 | 0.00 | 82 | 1039.4 |
| 20260506020345 | 15 | 33 | 9.7 | 16.1 | 0.00 | 0.00 | 0.00 | 82 | 1039.3 |
| 20260506015842 | 15 | 29 | 11.3 | 22.5 | 0.00 | 0.00 | 0.00 | 82 | 1039.3 |
| 20260506015339 | 15 | 7 | 11.3 | 17.7 | 0.00 | 0.00 | 0.00 | 82 | 1039.2 |
| 20260506014836 | 15 | 25 | 6.4 | 24.1 | 0.00 | 0.00 | 0.00 | 82 | 1039.0 |
| 20260506014333 | 15 | 14 | 6.4 | 14.5 | 0.00 | 0.00 | 0.00 | 82 | 1039.2 |
| 20260506013829 | 15 | 16 | 19.3 | 22.5 | 0.00 | 0.00 | 0.00 | 81 | 1039.0 |
| 20260506013327 | 15 | 320 | 3.2 | 16.1 | 0.00 | 0.00 | 0.00 | 82 | 1039.1 |
| 20260506012823 | 15 | 354 | 6.4 | 16.1 | 0.00 | 0.00 | 0.00 | 81 | 1038.7 |
| 20260506012320 | 15 | 20 | 6.4 | 16.1 | 0.00 | 0.00 | 0.00 | 81 | 1038.9 |
| 20260506011817 | 15 | 335 | 11.3 | 14.5 | 0.00 | 0.00 | 0.00 | 81 | 1038.5 |
| 20260506011314 | 15 | 344 | 8.0 | 16.1 | 0.00 | 0.00 | 0.00 | 81 | 1038.2 |
| 20260506010811 | 15 | 27 | 17.7 | 19.3 | 0.00 | 0.00 | 0.00 | 80 | 1038.2 |
| 20260506010309 | 15 | 0 | 4.8 | 16.1 | 0.00 | 0.00 | 0.00 | 80 | 1038.4 |
| 20260506005806 | 16 | 352 | 6.4 | 16.1 | 0.00 | 0.00 | 0.00 | 80 | 1038.5 |
| 20260506005305 | 16 | 20 | 12.9 | 19.3 | 0.00 | 0.00 | 0.00 | 79 | 1038.4 |
| 20260506004759 | 16 | 4 | 4.8 | 14.5 | 0.00 | 0.00 | 0.00 | 79 | 1038.3 |
| 20260506004257 | 16 | 13 | 8.0 | 19.3 | 0.00 | 0.00 | 0.00 | 78 | 1038.1 |
| 20260506003752 | 16 | 343 | 11.3 | 22.5 | 0.00 | 0.00 | 0.00 | 78 | 1037.8 |
| 20260506003249 | 17 | 9 | 4.8 | 17.7 | 0.00 | 0.00 | 0.00 | 77 | 1037.9 |
| 20260506002745 | 17 | 2 | 9.7 | 14.5 | 0.00 | 0.00 | 0.00 | 77 | 1037.8 |
| 20260506002241 | 17 | 21 | 9.7 | 14.5 | 0.00 | 0.00 | 0.00 | 76 | 1037.8 |
| 20260506001737 | 18 | 13 | 14.5 | 17.7 | 0.00 | 0.00 | 0.00 | 76 | 1037.8 |
| 20260506001235 | 18 | 316 | 9.7 | 17.7 | 0.00 | 0.00 | 0.00 | 76 | 1037.7 |
| 20260506000732 | 18 | 7 | 4.8 | 12.9 | 0.00 | 0.00 | 0.00 | 75 | 1037.5 |
| 20260506000229 | 18 | 3 | 12.9 | 19.3 | 0.00 | 0.00 | 0.00 | 74 | 1037.6 |
| 20260505235726 | 19 | 353 | 4.8 | 14.5 | 0.00 | 0.00 | 0.00 | 75 | 1037.8 |
| 20260505235224 | 19 | 335 | 4.8 | 14.5 | 0.00 | 0.00 | 0.00 | 75 | 1037.8 |
| 20260505234720 | 19 | 354 | 11.3 | 19.3 | 0.00 | 0.00 | 0.00 | 75 | 1037.8 |
| 20260505234218 | 20 | 354 | 6.4 | 12.9 | 0.00 | 0.00 | 0.00 | 75 | 1037.6 |
| 20260505233714 | 20 | 312 | 12.9 | 17.7 | 0.00 | 0.00 | 0.00 | 74 | 1037.6 |
| 20260505233212 | 20 | 306 | 8.0 | 17.7 | 0.00 | 0.00 | 0.00 | 74 | 1037.5 |
| 20260505232709 | 20 | 324 | 11.3 | 22.5 | 0.00 | 0.00 | 0.00 | 74 | 1037.4 |
| 20260505232207 | 20 | 311 | 14.5 | 25.7 | 0.00 | 0.00 | 0.00 | 73 | 1037.4 |
| 20260505231703 | 20 | 307 | 12.9 | 25.7 | 0.00 | 0.00 | 0.00 | 73 | 1037.5 |
| 20260505231203 | 20 | 319 | 16.1 | 27.4 | 0.00 | 0.00 | 0.00 | 72 | 1037.3 |
| 20260505230700 | 21 | 318 | 11.3 | 22.5 | 0.00 | 0.00 | 0.00 | 72 | 1037.1 |
| 20260505230156 | 21 | 319 | 12.9 | 20.9 | 0.00 | 0.00 | 0.00 | 72 | 1037.5 |
| 20260505225653 | 22 | 326 | 16.1 | 19.3 | 0.00 | 0.00 | 0.00 | 72 | 1037.4 |
| 20260505225149 | 22 | 296 | 12.9 | 19.3 | 0.00 | 0.00 | 0.00 | 71 | 1036.9 |
| 20260505224645 | 22 | 323 | 8.0 | 16.1 | 0.00 | 0.00 | 0.00 | 71 | 1036.9 |
| 20260505224143 | 22 | 312 | 9.7 | 24.1 | 0.00 | 0.00 | 0.00 | 70 | 1037.1 |
| 20260505223635 | 22 | 311 | 14.5 | 20.9 | 0.00 | 0.00 | 0.00 | 69 | 1036.8 |
| 20260505223130 | 22 | 284 | 4.8 | 14.5 | 0.00 | 0.00 | 0.00 | 70 | 1036.8 |
| 20260505222627 | 22 | 305 | 14.5 | 16.1 | 0.00 | 0.00 | 0.00 | 69 | 1036.5 |
| 20260505222123 | 23 | 323 | 9.7 | 24.1 | 0.00 | 0.00 | 0.00 | 68 | 1036.4 |
| 20260505221620 | 23 | 311 | 11.3 | 22.5 | 0.00 | 0.00 | 0.00 | 68 | 1036.3 |
| 20260505221117 | 23 | 308 | 8.0 | 16.1 | 0.00 | 0.00 | 0.00 | 69 | 1036.1 |
| 20260505220614 | 23 | 323 | 3.2 | 16.1 | 0.00 | 0.00 | 0.00 | 68 | 1036.2 |
| 20260505220112 | 23 | 319 | 12.9 | 16.1 | 0.00 | 0.00 | 0.00 | 66 | 1036.2 |
| 20260505215609 | 23 | 324 | 12.9 | 19.3 | 0.00 | 0.00 | 0.00 | 65 | 1036.1 |
| 20260505215107 | 23 | 335 | 12.9 | 20.9 | 0.00 | 0.00 | 0.00 | 67 | 1036.2 |
| 20260505214605 | 24 | 315 | 9.7 | 20.9 | 0.00 | 0.00 | 0.00 | 64 | 1036.1 |
| 20260505214102 | 25 | 320 | 9.7 | 19.3 | 0.00 | 0.00 | 0.00 | 65 | 1036.1 |
| 20260505213559 | 24 | 315 | 9.7 | 20.9 | 0.00 | 0.00 | 0.00 | 66 | 1035.9 |
| 20260505213055 | 24 | 310 | 9.7 | 19.3 | 0.00 | 0.00 | 0.00 | 64 | 1035.9 |
| 20260505212552 | 25 | 324 | 9.7 | 16.1 | 0.00 | 0.00 | 0.00 | 64 | 1035.8 |
| 20260505212049 | 25 | 301 | 11.3 | 17.7 | 0.00 | 0.00 | 0.00 | 63 | 1035.9 |
| 20260505211541 | 25 | 294 | 9.7 | 20.9 | 0.00 | 0.00 | 0.00 | 62 | 1036.1 |
| 20260505211037 | 25 | 312 | 8.0 | 19.3 | 0.00 | 0.00 | 0.00 | 61 | 1036.1 |
| 20260505210534 | 25 | 311 | 8.0 | 24.1 | 0.00 | 0.00 | 0.00 | 58 | 1035.9 |
| 20260505210032 | 26 | 314 | 14.5 | 19.3 | 0.00 | 0.00 | 0.00 | 56 | 1036.1 |
| 20260505205530 | 26 | 303 | 9.7 | 19.3 | 0.00 | 0.00 | 0.00 | 54 | 1036.1 |
| 20260505205026 | 26 | 288 | 12.9 | 17.7 | 0.00 | 0.00 | 0.00 | 52 | 1035.9 |
| 20260505204524 | 27 | 296 | 20.9 | 24.1 | 0.00 | 0.00 | 0.00 | 49 | 1036.0 |
| 20260505204021 | 27 | 302 | 11.3 | 16.1 | 0.00 | 0.00 | 0.00 | 49 | 1035.8 |
| 20260505203517 | 27 | 310 | 8.0 | 22.5 | 0.00 | 0.00 | 0.00 | 50 | 1035.8 |
| 20260505203015 | 27 | 306 | 8.0 | 16.1 | 0.00 | 0.00 | 0.00 | 49 | 1036.1 |
| 20260505202511 | 27 | 291 | 9.7 | 25.7 | 0.00 | 0.00 | 0.00 | 49 | 1035.9 |
| 20260505202006 | 27 | 279 | 17.7 | 22.5 | 0.00 | 0.00 | 0.00 | 47 | 1035.6 |
| 20260505201504 | 27 | 291 | 9.7 | 17.7 | 0.00 | 0.00 | 0.00 | 48 | 1035.8 |
| 20260505201001 | 27 | 285 | 12.9 | 22.5 | 0.00 | 0.00 | 0.00 | 45 | 1035.7 |
| 20260505200459 | 27 | 251 | 14.5 | 16.1 | 0.00 | 0.00 | 0.00 | 46 | 1035.7 |
| 20260505195954 | 27 | 286 | 9.7 | 22.5 | 0.00 | 0.00 | 0.00 | 45 | 1035.7 |
| 20260505195452 | 27 | 280 | 17.7 | 25.7 | 0.00 | 0.00 | 0.00 | 45 | 1035.8 |
| 20260505194949 | 28 | 279 | 11.3 | 29.0 | 0.00 | 0.00 | 0.00 | 45 | 1035.6 |
| 20260505194447 | 29 | 299 | 17.7 | 20.9 | 0.00 | 0.00 | 0.00 | 50 | 1035.5 |
| 20260505193947 | 29 | 276 | 8.0 | 20.9 | 0.00 | 0.00 | 0.00 | 57 | 1035.7 |
| 20260505193444 | 28 | 283 | 8.0 | 16.1 | 0.00 | 0.00 | 0.00 | 59 | 1035.3 |
| 20260505192942 | 28 | 263 | 12.9 | 16.1 | 0.00 | 0.00 | 0.00 | 59 | 1035.3 |
| 20260505192440 | 28 | 259 | 8.0 | 14.5 | 0.00 | 0.00 | 0.00 | 60 | 1035.5 |
| 20260505191937 | 27 | 276 | 11.3 | 14.5 | 0.00 | 0.00 | 0.00 | 59 | 1035.2 |
| 20260505191436 | 27 | 288 | 9.7 | 17.7 | 0.00 | 0.00 | 0.00 | 60 | 1035.7 |
| 20260505190932 | 27 | 273 | 9.7 | 14.5 | 0.00 | 0.00 | 0.00 | 59 | 1035.4 |
| 20260505190427 | 27 | 233 | 11.3 | 24.1 | 0.00 | 0.00 | 0.00 | 59 | 1035.4 |
| 20260505185923 | 27 | 273 | 17.7 | 20.9 | 0.00 | 0.00 | 0.00 | 58 | 1035.2 |
| 20260505185421 | 28 | 271 | 9.7 | 16.1 | 0.00 | 0.00 | 0.00 | 58 | 1035.1 |
| 20260505184917 | 28 | 281 | 11.3 | 19.3 | 0.00 | 0.00 | 0.00 | 58 | 1035.3 |
| 20260505184414 | 28 | 277 | 22.5 | 24.1 | 0.00 | 0.00 | 0.00 | 57 | 1035.5 |
| 20260505183910 | 28 | 255 | 4.8 | 19.3 | 0.00 | 0.00 | 0.00 | 58 | 1035.3 |
| 20260505183407 | 28 | 280 | 4.8 | 20.9 | 0.00 | 0.00 | 0.00 | 60 | 1035.2 |
| 20260505182904 | 28 | 269 | 4.8 | 14.5 | 0.00 | 0.00 | 0.00 | 63 | 1035.1 |
| 20260505182401 | 27 | 172 | 3.2 | 14.5 | 0.00 | 0.00 | 0.00 | 63 | 1035.1 |
| 20260505181857 | 27 | 288 | 14.5 | 22.5 | 0.00 | 0.00 | 0.00 | 63 | 1035.4 |
| 20260505181355 | 27 | 273 | 9.7 | 12.9 | 0.00 | 0.00 | 0.00 | 63 | 1035.3 |
| 20260505180851 | 27 | 291 | 12.9 | 20.9 | 0.00 | 0.00 | 0.00 | 63 | 1035.6 |
| 20260505180348 | 27 | 265 | 14.5 | 14.5 | 0.00 | 0.00 | 0.00 | 64 | 1035.6 |
| 20260505175844 | 27 | 266 | 4.8 | 22.5 | 0.00 | 0.00 | 0.00 | 65 | 1035.5 |
| 20260505175340 | 27 | 269 | 3.2 | 12.9 | 0.00 | 0.00 | 0.00 | 66 | 1035.4 |
| 20260505174837 | 27 | 253 | 8.0 | 12.9 | 0.00 | 0.00 | 0.00 | 67 | 1035.5 |
| 20260505174335 | 26 | 259 | 6.4 | 17.7 | 0.00 | 0.00 | 0.00 | 67 | 1035.2 |
| 20260505173831 | 26 | 248 | 14.5 | 20.9 | 0.00 | 0.00 | 0.00 | 66 | 1035.3 |
| 20260505173327 | 26 | 242 | 8.0 | 17.7 | 0.00 | 0.00 | 0.00 | 68 | 1035.6 |
| 20260505172825 | 26 | 252 | 9.7 | 22.5 | 0.00 | 0.00 | 0.00 | 68 | 1035.6 |
| 20260505172322 | 26 | 261 | 9.7 | 12.9 | 0.00 | 0.00 | 0.00 | 70 | 1035.1 |
| 20260505171822 | 26 | 255 | 4.8 | 16.1 | 0.00 | 0.00 | 0.00 | 70 | 1034.8 |
| 20260505171319 | 26 | 199 | 4.8 | 11.3 | 0.00 | 0.00 | 0.00 | 70 | 1034.8 |
| 20260505170815 | 25 | 249 | 6.4 | 11.3 | 0.00 | 0.00 | 0.00 | 72 | 1035.1 |
| 20260505170312 | 25 | 242 | 3.2 | 17.7 | 0.00 | 0.00 | 0.00 | 72 | 1035.3 |
| 20260505165808 | 25 | 228 | 3.2 | 16.1 | 0.00 | 0.00 | 0.00 | 72 | 1035.2 |
| 20260505165306 | 25 | 174 | 4.8 | 17.7 | 0.00 | 0.00 | 0.00 | 72 | 1034.8 |
| 20260505164759 | 25 | 208 | 4.8 | 19.3 | 0.00 | 0.00 | 0.00 | 72 | 1035.0 |
| 20260505164256 | 25 | 339 | 4.8 | 12.9 | 0.00 | 0.00 | 0.00 | 73 | 1034.9 |
| 20260505163755 | 25 | 226 | 8.0 | 17.7 | 0.00 | 0.00 | 0.00 | 73 | 1035.0 |
| 20260505163253 | 25 | 230 | 11.3 | 12.9 | 0.00 | 0.00 | 0.00 | 74 | 1034.9 |
| 20260505162750 | 25 | 219 | 8.0 | 8.0 | 0.00 | 0.00 | 0.00 | 75 | 1035.1 |
| 20260505162247 | 25 | 184 | 8.0 | 9.7 | 0.00 | 0.00 | 0.00 | 74 | 1035.1 |
| 20260505161744 | 24 | 221 | 4.8 | 19.3 | 0.00 | 0.00 | 0.00 | 73 | 1035.1 |
| 20260505161241 | 24 | 274 | 8.0 | 17.7 | 0.00 | 0.00 | 0.00 | 73 | 1035.1 |
| 20260505160738 | 24 | 228 | 6.4 | 14.5 | 0.00 | 0.00 | 0.00 | 75 | 1035.0 |
| 20260505160236 | 24 | 239 | 11.3 | 14.5 | 0.00 | 0.00 | 0.00 | 74 | 1034.7 |